QPF
0.00 0.00 0.01 0.02 0.01 0.00 0.00 0.01 0.01 0.01 0.01 0.01 0.01 0.01 0.01 0.01 0.02 0.02 0.04 0.07 0.03 0.03 0.03 0.04 0.03 0.03 0.04 0.05 0.04 0.05 0.05 0.05 0.05 0.05 0.04 0.04 0.04 0.03 0.02 0.01 0.01 0.01 0.01 0.01
0.01 0.01 0.01 0.02 0.01 0.01 0.01 0.02 0.03 0.03 0.03 0.02 0.01 0.01 0.02 0.02 0.02 0.02 0.03 0.06 0.04 0.03 0.03 0.04 0.03 0.02 0.02 0.02 0.04 0.04 0.04 0.05 0.05 0.05 0.04 0.04 0.04 0.04 0.03 0.02 0.02 0.02 0.01 0.02
0.01 0.01 0.02 0.01 0.01 0.01 0.01 0.01 0.03 0.04 0.04 0.02 0.02 0.02 0.02 0.01 0.02 0.02 0.02 0.04 0.04 0.03 0.03 0.03 0.03 0.02 0.02 0.01 0.01 0.03 0.03 0.03 0.03 0.03 0.04 0.04 0.04 0.05 0.04 0.04 0.03 0.02 0.02 0.02
0.01 0.03 0.02 0.02 0.01 0.01 0.01 0.02 0.03 0.03 0.03 0.02 0.02 0.01 0.02 0.02 0.02 0.02 0.02 0.03 0.04 0.04 0.03 0.03 0.02 0.02 0.02 0.01 0.01 0.01 0.02 0.02 0.03 0.03 0.03 0.03 0.03 0.03 0.03 0.03 0.04 0.04 0.03 0.02
0.02 0.02 0.02 0.02 0.01 0.01 0.02 0.03 0.03 0.03 0.03 0.02 0.02 0.03 0.03 0.02 0.02 0.02 0.02 0.03 0.04 0.03 0.02 0.02 0.01 0.02 0.01 0.01 0.01 0.01 0.02 0.01 0.02 0.03 0.03 0.03 0.02 0.02 0.02 0.03 0.03 0.03 0.04 0.03
0.02 0.03 0.04 0.02 0.02 0.01 0.02 0.04 0.03 0.03 0.03 0.03 0.03 0.05 0.05 0.03 0.03 0.02 0.01 0.02 0.02 0.02 0.01 0.02 0.01 0.01 0.02 0.01 0.01 0.02 0.02 0.02 0.02 0.02 0.03 0.03 0.02 0.02 0.02 0.03 0.03 0.02 0.02 0.03
0.02 0.03 0.02 0.01 0.01 0.03 0.04 0.05 0.04 0.03 0.04 0.03 0.03 0.05 0.04 0.03 0.04 0.03 0.02 0.03 0.03 0.02 0.02 0.02 0.02 0.01 0.02 0.03 0.02 0.01 0.02 0.02 0.02 0.01 0.02 0.01 0.01 0.02 0.02 0.02 0.02 0.02 0.02 0.02
0.03 0.03 0.02 0.01 0.01 0.03 0.05 0.05 0.07 0.06 0.07 0.05 0.04 0.04 0.05 0.05 0.05 0.03 0.04 0.04 0.03 0.02 0.02 0.01 0.01 0.01 0.02 0.04 0.04 0.02 0.01 0.02 0.01 0.01 0.01 0.01 0.01 0.01 0.02 0.02 0.03 0.03 0.03 0.03
0.03 0.03 0.02 0.02 0.02 0.03 0.04 0.08 0.11 0.12 0.11 0.06 0.03 0.03 0.02 0.03 0.02 0.02 0.04 0.04 0.04 0.04 0.04 0.03 0.02 0.01 0.02 0.04 0.04 0.03 0.03 0.02 0.02 0.01 0.01 0.01 0.01 0.01 0.01 0.02 0.03 0.04 0.05 0.05
0.04 0.03 0.03 0.04 0.05 0.06 0.07 0.10 0.10 0.13 0.12 0.06 0.04 0.03 0.03 0.04 0.05 0.04 0.03 0.04 0.04 0.04 0.04 0.03 0.03 0.02 0.02 0.03 0.03 0.03 0.03 0.03 0.02 0.02 0.02 0.02 0.01 0.01 0.01 0.02 0.02 0.04 0.05 0.05
0.05 0.04 0.04 0.04 0.05 0.07 0.07 0.07 0.09 0.12 0.10 0.06 0.04 0.04 0.03 0.04 0.04 0.04 0.03 0.03 0.03 0.04 0.04 0.03 0.02 0.01 0.01 0.02 0.03 0.03 0.03 0.02 0.02 0.02 0.01 0.01 0.01 0.01 0.01 0.01 0.02 0.03 0.02 0.02
0.07 0.05 0.05 0.05 0.05 0.07 0.07 0.06 0.06 0.08 0.07 0.03 0.02 0.02 0.02 0.03 0.03 0.03 0.02 0.02 0.02 0.02 0.02 0.02 0.01 0.01 0.01 0.02 0.02 0.02 0.02 0.02 0.01 0.02 0.01 0.01 0.01 0.01 0.01 0.01 0.01 0.01 0.01 0.00
0.07 0.07 0.05 0.05 0.04 0.03 0.03 0.03 0.04 0.06 0.06 0.02 0.01 0.01 0.03 0.03 0.03 0.03 0.02 0.02 0.02 0.02 0.01 0.01 0.01 0.01 0.02 0.03 0.03 0.02 0.02 0.02 0.01 0.01 0.01 0.01 0.01 0.01 0.01 0.01 0.00 0.00 0.00 0.00
0.04 0.05 0.06 0.05 0.05 0.03 0.02 0.02 0.03 0.04 0.05 0.02 0.02 0.02 0.03 0.03 0.03 0.02 0.02 0.02 0.02 0.02 0.02 0.02 0.02 0.02 0.02 0.01 0.02 0.02 0.02 0.01 0.01 0.01 0.01 0.01 0.01 0.00 0.01 0.00 0.00 0.00 0.01 0.01
0.04 0.05 0.04 0.03 0.02 0.02 0.01 0.01 0.02 0.03 0.04 0.02 0.02 0.03 0.03 0.04 0.04 0.02 0.02 0.02 0.02 0.02 0.02 0.02 0.02 0.03 0.03 0.04 0.03 0.02 0.01 0.01 0.01 0.01 0.01 0.01 0.01 0.00 0.00 0.00 0.00 0.00 0.00 0.01
0.04 0.04 0.04 0.03 0.03 0.02 0.02 0.01 0.02 0.03 0.03 0.02 0.03 0.03 0.04 0.04 0.04 0.03 0.02 0.01 0.01 0.02 0.02 0.03 0.03 0.03 0.03 0.04 0.04 0.03 0.02 0.02 0.01 0.01 0.01 0.01 0.00 0.00 0.00 0.00 0.00 0.00 0.00 0.00
0.04 0.05 0.05 0.04 0.03 0.05 0.05 0.05 0.04 0.03 0.03 0.03 0.03 0.03 0.04 0.05 0.04 0.03 0.03 0.02 0.01 0.01 0.01 0.01 0.02 0.02 0.02 0.03 0.03 0.03 0.02 0.01 0.01 0.01 0.01 0.00 0.00 0.00 0.00 0.00 0.01 0.00 0.00 0.00
0.04 0.05 0.04 0.03 0.03 0.04 0.05 0.04 0.02 0.02 0.03 0.03 0.02 0.03 0.04 0.05 0.04 0.03 0.03 0.03 0.02 0.02 0.02 0.02 0.02 0.01 0.01 0.01 0.01 0.01 0.02 0.01 0.01 0.00 0.01 0.00 0.00 0.00 0.01 0.01 0.01 0.00 0.00 0.00
0.04 0.04 0.04 0.04 0.03 0.03 0.03 0.02 0.02 0.02 0.03 0.03 0.03 0.03 0.04 0.04 0.04 0.04 0.04 0.04 0.03 0.01 0.01 0.01 0.02 0.02 0.02 0.01 0.01 0.01 0.01 0.01 0.01 0.01 0.01 0.01 0.00 0.01 0.02 0.02 0.01 0.00 0.00 0.01
0.04 0.05 0.05 0.05 0.04 0.03 0.02 0.02 0.02 0.02 0.02 0.02 0.03 0.03 0.03 0.03 0.03 0.05 0.05 0.04 0.02 0.01 0.01 0.01 0.02 0.02 0.02 0.01 0.01 0.01 0.01 0.01 0.01 0.01 0.01 0.01 0.01 0.01 0.02 0.02 0.01 0.01 0.01 0.01
0.06 0.05 0.05 0.06 0.04 0.02 0.01 0.01 0.02 0.02 0.02 0.02 0.02 0.02 0.03 0.02 0.02 0.02 0.03 0.04 0.03 0.02 0.01 0.02 0.02 0.02 0.01 0.01 0.01 0.02 0.01 0.01 0.01 0.01 0.01 0.01 0.01 0.01 0.01 0.01 0.01 0.01 0.01 0.01
0.07 0.06 0.05 0.05 0.04 0.03 0.02 0.02 0.02 0.02 0.02 0.02 0.03 0.02 0.02 0.02 0.02 0.03 0.03 0.03 0.03 0.02 0.02 0.03 0.03 0.02 0.02 0.03 0.03 0.03 0.02 0.01 0.01 0.01 0.01 0.02 0.02 0.01 0.01 0.01 0.01 0.01 0.01 0.01
0.07 0.06 0.05 0.05 0.04 0.04 0.03 0.03 0.03 0.02 0.02 0.03 0.03 0.02 0.03 0.03 0.03 0.03 0.03 0.03 0.04 0.03 0.03 0.04 0.04 0.03 0.02 0.02 0.04 0.05 0.06 0.06 0.05 0.03 0.03 0.02 0.02 0.02 0.02 0.01 0.01 0.01 0.01 0.01
0.06 0.06 0.06 0.05 0.04 0.03 0.03 0.02 0.02 0.02 0.02 0.02 0.02 0.02 0.02 0.02 0.02 0.02 0.03 0.04 0.05 0.04 0.03 0.04 0.03 0.03 0.03 0.02 0.02 0.02 0.03 0.05 0.07 0.08 0.07 0.05 0.04 0.03 0.03 0.02 0.01 0.01 0.01 0.01
0.04 0.05 0.05 0.04 0.03 0.03 0.03 0.02 0.02 0.02 0.03 0.02 0.02 0.02 0.02 0.02 0.02 0.02 0.03 0.03 0.03 0.03 0.03 0.02 0.02 0.02 0.02 0.02 0.02 0.02 0.02 0.03 0.04 0.05 0.05 0.07 0.08 0.07 0.05 0.03 0.02 0.01 0.01 0.01
0.03 0.03 0.03 0.02 0.02 0.03 0.03 0.02 0.02 0.02 0.02 0.02 0.02 0.01 0.01 0.01 0.02 0.02 0.02 0.03 0.03 0.03 0.04 0.03 0.02 0.03 0.03 0.03 0.02 0.02 0.02 0.02 0.03 0.04 0.04 0.05 0.05 0.05 0.04 0.04 0.03 0.03 0.03 0.02
0.03 0.02 0.02 0.01 0.01 0.02 0.02 0.02 0.02 0.02 0.01 0.01 0.01 0.01 0.00 0.00 0.01 0.01 0.02 0.03 0.03 0.04 0.05 0.04 0.03 0.04 0.03 0.03 0.03 0.02 0.02 0.03 0.04 0.04 0.04 0.04 0.03 0.02 0.02 0.02 0.02 0.03 0.03 0.03
MSLP
1004.91 1004.74 1004.49 1004.19 1003.85 1003.54 1003.26 1003.04 1002.88 1002.77 1002.69 1002.59 1002.46 1002.25 1001.96 1001.58 1001.13 1000.65 1000.19 999.79 999.51 999.41 999.51 999.84 1000.37 1001.10 1001.97 1002.96 1003.99 1005.02 1006.01 1006.94 1007.81 1008.61 1009.36 1010.08 1010.79 1011.49 1012.21 1012.93 1013.63 1014.31 1014.93 1015.48
1004.45 1004.27 1003.99 1003.63 1003.23 1002.84 1002.50 1002.22 1002.04 1001.93 1001.88 1001.84 1001.78 1001.66 1001.45 1001.13 1000.73 1000.26 999.79 999.37 999.08 998.96 999.05 999.37 999.93 1000.68 1001.59 1002.61 1003.67 1004.72 1005.72 1006.64 1007.49 1008.27 1009.00 1009.71 1010.41 1011.13 1011.86 1012.61 1013.35 1014.06 1014.72 1015.30
1003.97 1003.84 1003.58 1003.22 1002.81 1002.38 1001.98 1001.65 1001.41 1001.26 1001.18 1001.15 1001.11 1001.02 1000.85 1000.58 1000.21 999.78 999.34 998.94 998.67 998.56 998.67 999.02 999.61 1000.39 1001.33 1002.37 1003.45 1004.50 1005.50 1006.41 1007.23 1007.99 1008.69 1009.38 1010.07 1010.78 1011.51 1012.27 1013.02 1013.75 1014.41 1015.00
1003.62 1003.56 1003.38 1003.08 1002.69 1002.25 1001.81 1001.42 1001.10 1000.87 1000.73 1000.63 1000.55 1000.45 1000.28 1000.03 999.71 999.33 998.93 998.59 998.36 998.29 998.45 998.83 999.44 1000.24 1001.19 1002.24 1003.31 1004.35 1005.33 1006.21 1007.01 1007.74 1008.41 1009.07 1009.74 1010.43 1011.15 1011.88 1012.62 1013.34 1014.00 1014.58
1003.49 1003.55 1003.48 1003.27 1002.94 1002.51 1002.04 1001.59 1001.17 1000.84 1000.57 1000.38 1000.22 1000.06 999.87 999.62 999.32 998.99 998.66 998.38 998.21 998.20 998.39 998.80 999.41 1000.21 1001.15 1002.17 1003.21 1004.22 1005.17 1006.02 1006.79 1007.48 1008.13 1008.76 1009.40 1010.06 1010.75 1011.46 1012.17 1012.86 1013.49 1014.05
1003.63 1003.83 1003.89 1003.79 1003.52 1003.12 1002.64 1002.12 1001.61 1001.14 1000.75 1000.42 1000.15 999.91 999.67 999.42 999.14 998.85 998.58 998.37 998.26 998.29 998.51 998.92 999.52 1000.28 1001.17 1002.14 1003.12 1004.08 1004.98 1005.79 1006.53 1007.20 1007.83 1008.44 1009.05 1009.69 1010.35 1011.02 1011.69 1012.34 1012.94 1013.47
1004.05 1004.37 1004.55 1004.55 1004.35 1003.98 1003.49 1002.91 1002.30 1001.72 1001.19 1000.73 1000.35 1000.02 999.73 999.45 999.19 998.94 998.72 998.56 998.49 998.55 998.77 999.15 999.70 1000.41 1001.22 1002.10 1003.01 1003.90 1004.74 1005.52 1006.23 1006.88 1007.49 1008.09 1008.69 1009.31 1009.94 1010.59 1011.22 1011.84 1012.41 1012.92
1004.66 1005.07 1005.34 1005.42 1005.28 1004.94 1004.43 1003.81 1003.12 1002.44 1001.80 1001.23 1000.74 1000.34 1000.00 999.71 999.45 999.23 999.05 998.92 998.88 998.94 999.13 999.47 999.94 1000.55 1001.26 1002.05 1002.86 1003.67 1004.45 1005.19 1005.88 1006.52 1007.14 1007.73 1008.33 1008.94 1009.56 1010.18 1010.80 1011.40 1011.95 1012.45
1005.36 1005.81 1006.12 1006.24 1006.14 1005.81 1005.30 1004.65 1003.92 1003.17 1002.45 1001.81 1001.26 1000.80 1000.43 1000.13 999.88 999.68 999.53 999.42 999.38 999.42 999.57 999.84 1000.22 1000.72 1001.32 1001.99 1002.70 1003.43 1004.15 1004.85 1005.52 1006.16 1006.77 1007.38 1007.98 1008.59 1009.21 1009.83 1010.44 1011.03 1011.58 1012.09
1006.04 1006.47 1006.77 1006.89 1006.80 1006.48 1005.97 1005.31 1004.57 1003.79 1003.05 1002.37 1001.80 1001.33 1000.95 1000.66 1000.43 1000.25 1000.11 1000.02 999.97 999.99 1000.08 1000.27 1000.56 1000.94 1001.42 1001.98 1002.59 1003.24 1003.90 1004.55 1005.20 1005.83 1006.45 1007.06 1007.67 1008.29 1008.91 1009.53 1010.14 1010.74 1011.31 1011.83
1006.63 1006.98 1007.23 1007.31 1007.19 1006.87 1006.36 1005.72 1005.00 1004.25 1003.53 1002.87 1002.32 1001.87 1001.52 1001.26 1001.06 1000.91 1000.79 1000.70 1000.65 1000.63 1000.67 1000.79 1000.98 1001.27 1001.64 1002.09 1002.61 1003.17 1003.76 1004.37 1004.98 1005.59 1006.19 1006.80 1007.41 1008.02 1008.64 1009.26 1009.88 1010.49 1011.08 1011.64
1007.11 1007.35 1007.49 1007.50 1007.34 1007.00 1006.51 1005.91 1005.24 1004.55 1003.89 1003.30 1002.81 1002.42 1002.13 1001.91 1001.76 1001.64 1001.55 1001.48 1001.42 1001.38 1001.38 1001.44 1001.56 1001.76 1002.04 1002.40 1002.82 1003.30 1003.82 1004.36 1004.92 1005.48 1006.05 1006.63 1007.21 1007.80 1008.40 1009.02 1009.64 1010.25 1010.86 1011.44
1007.53 1007.63 1007.65 1007.57 1007.35 1007.00 1006.54 1005.98 1005.39 1004.79 1004.22 1003.73 1003.32 1003.01 1002.79 1002.64 1002.54 1002.47 1002.41 1002.36 1002.30 1002.26 1002.24 1002.26 1002.33 1002.46 1002.66 1002.93 1003.27 1003.66 1004.09 1004.55 1005.03 1005.53 1006.03 1006.55 1007.08 1007.62 1008.19 1008.77 1009.37 1009.98 1010.59 1011.18
1007.97 1007.92 1007.82 1007.65 1007.38 1007.01 1006.58 1006.09 1005.57 1005.07 1004.62 1004.23 1003.92 1003.70 1003.56 1003.47 1003.43 1003.40 1003.38 1003.35 1003.32 1003.28 1003.25 1003.24 1003.27 1003.35 1003.49 1003.68 1003.93 1004.23 1004.56 1004.92 1005.31 1005.70 1006.12 1006.55 1007.00 1007.47 1007.98 1008.51 1009.07 1009.65 1010.24 1010.81
1008.49 1008.32 1008.11 1007.86 1007.55 1007.18 1006.78 1006.35 1005.92 1005.52 1005.17 1004.89 1004.68 1004.54 1004.46 1004.43 1004.44 1004.45 1004.46 1004.45 1004.44 1004.41 1004.38 1004.36 1004.36 1004.39 1004.47 1004.59 1004.75 1004.94 1005.17 1005.41 1005.68 1005.97 1006.27 1006.59 1006.95 1007.33 1007.76 1008.22 1008.73 1009.25 1009.79 1010.33
1009.14 1008.87 1008.59 1008.28 1007.95 1007.60 1007.23 1006.87 1006.52 1006.21 1005.95 1005.75 1005.61 1005.53 1005.51 1005.52 1005.55 1005.58 1005.61 1005.62 1005.61 1005.59 1005.56 1005.52 1005.50 1005.49 1005.50 1005.54 1005.61 1005.70 1005.81 1005.93 1006.08 1006.24 1006.42 1006.64 1006.89 1007.18 1007.52 1007.91 1008.34 1008.80 1009.28 1009.75
1009.89 1009.59 1009.27 1008.94 1008.61 1008.28 1007.95 1007.65 1007.37 1007.13 1006.94 1006.80 1006.71 1006.66 1006.66 1006.68 1006.72 1006.76 1006.78 1006.79 1006.78 1006.75 1006.70 1006.64 1006.58 1006.52 1006.47 1006.43 1006.40 1006.38 1006.37 1006.38 1006.41 1006.45 1006.53 1006.64 1006.79 1007.00 1007.26 1007.57 1007.92 1008.31 1008.72 1009.12
1010.71 1010.40 1010.08 1009.76 1009.46 1009.16 1008.89 1008.64 1008.42 1008.23 1008.08 1007.97 1007.90 1007.87 1007.86 1007.87 1007.88 1007.90 1007.90 1007.89 1007.85 1007.80 1007.72 1007.62 1007.51 1007.39 1007.27 1007.14 1007.01 1006.89 1006.78 1006.68 1006.60 1006.55 1006.53 1006.56 1006.64 1006.78 1006.97 1007.21 1007.50 1007.81 1008.14 1008.47
1011.51 1011.22 1010.94 1010.66 1010.40 1010.15 1009.93 1009.73 1009.55 1009.40 1009.27 1009.17 1009.10 1009.05 1009.01 1008.99 1008.97 1008.94 1008.90 1008.85 1008.77 1008.67 1008.55 1008.40 1008.23 1008.04 1007.84 1007.63 1007.41 1007.20 1006.99 1006.80 1006.64 1006.51 1006.43 1006.40 1006.43 1006.51 1006.65 1006.84 1007.07 1007.32 1007.58 1007.83
1012.21 1011.97 1011.74 1011.52 1011.31 1011.12 1010.94 1010.79 1010.64 1010.51 1010.39 1010.29 1010.20 1010.12 1010.04 1009.97 1009.90 1009.83 1009.74 1009.63 1009.51 1009.36 1009.18 1008.97 1008.74 1008.48 1008.20 1007.91 1007.61 1007.32 1007.04 1006.78 1006.55 1006.37 1006.25 1006.18 1006.17 1006.22 1006.33 1006.48 1006.66 1006.85 1007.05 1007.22
1012.76 1012.59 1012.42 1012.26 1012.11 1011.97 1011.84 1011.71 1011.59 1011.48 1011.36 1011.25 1011.13 1011.02 1010.90 1010.79 1010.67 1010.55 1010.41 1010.26 1010.08 1009.88 1009.65 1009.38 1009.09 1008.76 1008.42 1008.05 1007.69 1007.33 1006.98 1006.67 1006.40 1006.19 1006.03 1005.94 1005.91 1005.94 1006.02 1006.13 1006.26 1006.40 1006.54 1006.65
1013.19 1013.07 1012.96 1012.85 1012.75 1012.66 1012.56 1012.47 1012.36 1012.25 1012.13 1012.00 1011.87 1011.73 1011.58 1011.43 1011.28 1011.12 1010.94 1010.75 1010.54 1010.29 1010.02 1009.70 1009.36 1008.98 1008.57 1008.15 1007.73 1007.31 1006.92 1006.57 1006.27 1006.02 1005.85 1005.73 1005.68 1005.69 1005.73 1005.81 1005.89 1005.98 1006.06 1006.11
1013.52 1013.45 1013.38 1013.32 1013.26 1013.20 1013.13 1013.05 1012.96 1012.85 1012.72 1012.58 1012.43 1012.27 1012.11 1011.94 1011.77 1011.58 1011.39 1011.17 1010.93 1010.66 1010.35 1010.01 1009.62 1009.20 1008.76 1008.29 1007.82 1007.37 1006.93 1006.55 1006.21 1005.94 1005.74 1005.60 1005.52 1005.49 1005.49 1005.52 1005.56 1005.59 1005.61 1005.61
1013.82 1013.79 1013.75 1013.72 1013.69 1013.65 1013.59 1013.52 1013.43 1013.31 1013.18 1013.04 1012.88 1012.71 1012.54 1012.36 1012.18 1011.99 1011.79 1011.57 1011.32 1011.03 1010.71 1010.34 1009.93 1009.49 1009.01 1008.51 1008.01 1007.52 1007.05 1006.63 1006.26 1005.96 1005.72 1005.55 1005.43 1005.35 1005.31 1005.29 1005.26 1005.24 1005.20 1005.14
1014.13 1014.13 1014.13 1014.11 1014.09 1014.06 1014.01 1013.93 1013.84 1013.72 1013.59 1013.43 1013.27 1013.10 1012.93 1012.75 1012.57 1012.38 1012.18 1011.97 1011.72 1011.43 1011.10 1010.72 1010.30 1009.83 1009.33 1008.80 1008.27 1007.75 1007.25 1006.80 1006.40 1006.05 1005.78 1005.56 1005.39 1005.27 1005.17 1005.09 1005.02 1004.93 1004.84 1004.74
1014.50 1014.52 1014.53 1014.54 1014.52 1014.49 1014.44 1014.36 1014.26 1014.13 1013.99 1013.83 1013.66 1013.49 1013.32 1013.14 1012.97 1012.78 1012.59 1012.37 1012.12 1011.83 1011.49 1011.10 1010.67 1010.18 1009.66 1009.11 1008.56 1008.00 1007.48 1006.99 1006.55 1006.17 1005.85 1005.59 1005.38 1005.21 1005.06 1004.94 1004.81 1004.69 1004.56 1004.42
1014.89 1014.94 1014.98 1015.00 1014.99 1014.97 1014.91 1014.83 1014.72 1014.59 1014.44 1014.27 1014.09 1013.92 1013.73 1013.56 1013.37 1013.18 1012.98 1012.75 1012.49 1012.19 1011.84 1011.43 1010.97 1010.47 1009.92 1009.35 1008.77 1008.19 1007.63 1007.11 1006.64 1006.23 1005.87 1005.58 1005.33 1005.13 1004.96 1004.80 1004.65 1004.51 1004.36 1004.21
Thickness
5715 5723 5724 5721 5721 5724 5724 5728 5724 5728 5729 5730 5729 5726 5724 5722 5719 5715 5712 5709 5708 5708 5708 5708 5708 5707 5707 5706 5705 5704 5702 5700 5698 5697 5696 5695 5694 5693 5692 5691 5691 5689 5688 5687
5702 5713 5715 5713 5717 5720 5722 5725 5724 5723 5719 5728 5726 5723 5718 5716 5713 5711 5708 5706 5704 5704 5703 5702 5702 5702 5701 5701 5699 5699 5698 5696 5694 5693 5692 5690 5689 5688 5687 5687 5686 5685 5684 5683
5693 5704 5703 5698 5711 5714 5716 5721 5719 5715 5717 5719 5714 5712 5711 5711 5710 5708 5706 5704 5702 5700 5699 5698 5697 5696 5696 5696 5695 5694 5692 5691 5690 5689 5687 5686 5686 5684 5683 5682 5681 5680 5679 5678
5690 5687 5675 5701 5715 5715 5711 5712 5715 5713 5712 5711 5708 5707 5708 5708 5705 5703 5702 5700 5697 5695 5694 5693 5693 5692 5691 5691 5691 5690 5688 5686 5686 5685 5683 5682 5681 5679 5678 5677 5676 5675 5674 5673
5682 5680 5684 5692 5699 5701 5698 5696 5702 5702 5701 5702 5702 5699 5697 5699 5700 5698 5696 5694 5692 5691 5690 5688 5688 5688 5686 5685 5686 5685 5683 5682 5681 5680 5679 5677 5675 5674 5673 5672 5671 5670 5670 5668
5676 5671 5671 5683 5693 5698 5693 5683 5692 5693 5691 5693 5693 5687 5687 5690 5691 5690 5689 5687 5686 5685 5685 5683 5682 5682 5680 5680 5679 5679 5678 5678 5676 5675 5673 5672 5670 5669 5668 5667 5666 5667 5665 5664
5669 5668 5673 5676 5684 5687 5673 5676 5684 5686 5684 5684 5684 5684 5683 5683 5682 5682 5680 5679 5679 5678 5677 5676 5676 5676 5674 5674 5673 5674 5674 5673 5671 5670 5668 5667 5665 5663 5662 5662 5661 5660 5660 5659
5663 5660 5657 5665 5672 5669 5666 5672 5676 5675 5675 5674 5675 5676 5676 5675 5674 5673 5672 5671 5671 5670 5669 5669 5670 5669 5668 5667 5668 5668 5668 5667 5665 5664 5663 5662 5659 5657 5656 5656 5655 5655 5654 5653
5652 5649 5650 5656 5658 5659 5662 5662 5664 5665 5667 5667 5667 5668 5668 5668 5667 5666 5665 5664 5664 5663 5662 5662 5662 5662 5661 5660 5661 5660 5659 5658 5658 5657 5656 5655 5654 5652 5652 5651 5653 5653 5652 5651
5640 5640 5643 5646 5649 5651 5654 5655 5657 5659 5659 5660 5660 5661 5661 5661 5659 5657 5657 5657 5657 5656 5655 5654 5655 5655 5655 5654 5654 5653 5651 5650 5650 5650 5649 5649 5648 5650 5649 5649 5648 5648 5647 5646
5629 5631 5635 5637 5639 5641 5644 5647 5649 5652 5654 5655 5655 5655 5655 5654 5652 5651 5651 5650 5649 5649 5648 5648 5648 5648 5648 5647 5646 5645 5644 5643 5644 5644 5645 5643 5643 5642 5643 5641 5640 5638 5639 5639
5623 5624 5627 5627 5632 5635 5636 5638 5640 5642 5645 5647 5648 5648 5648 5647 5646 5645 5644 5644 5642 5642 5642 5642 5642 5640 5640 5639 5639 5637 5636 5636 5638 5639 5639 5639 5638 5636 5631 5631 5628 5626 5625 5625
5617 5620 5621 5623 5625 5628 5629 5631 5633 5635 5637 5639 5640 5641 5641 5639 5638 5638 5638 5637 5636 5636 5636 5635 5634 5632 5632 5632 5631 5630 5630 5630 5631 5633 5633 5633 5633 5632 5629 5625 5620 5619 5618 5617
5611 5613 5614 5616 5618 5621 5622 5624 5626 5628 5630 5631 5632 5632 5632 5631 5630 5630 5630 5630 5629 5629 5628 5627 5626 5625 5625 5625 5624 5623 5624 5623 5624 5626 5627 5628 5627 5627 5626 5624 5622 5620 5615 5611
5606 5608 5609 5611 5613 5614 5617 5618 5618 5619 5620 5621 5622 5622 5621 5621 5620 5621 5622 5622 5622 5621 5621 5620 5619 5618 5618 5618 5617 5617 5619 5619 5619 5620 5621 5622 5622 5622 5621 5619 5618 5617 5615 5610
5599 5601 5603 5604 5605 5607 5609 5611 5611 5611 5612 5613 5614 5614 5614 5614 5613 5613 5613 5613 5613 5613 5612 5612 5612 5612 5611 5611 5611 5612 5612 5610 5611 5614 5616 5616 5616 5615 5614 5614 5613 5612 5611 5609
5592 5593 5595 5598 5600 5601 5602 5604 5605 5605 5606 5606 5606 5607 5606 5606 5605 5605 5605 5605 5605 5605 5605 5604 5605 5606 5606 5606 5607 5609 5610 5608 5603 5608 5610 5610 5610 5609 5609 5609 5608 5607 5606 5605
5588 5589 5592 5593 5595 5596 5596 5597 5598 5598 5598 5599 5599 5599 5598 5598 5598 5597 5598 5598 5598 5598 5598 5598 5599 5600 5601 5601 5602 5604 5606 5606 5604 5605 5605 5604 5604 5604 5604 5603 5603 5602 5602 5601
5584 5586 5588 5589 5589 5590 5590 5590 5591 5591 5592 5592 5592 5591 5591 5591 5591 5590 5591 5591 5592 5592 5592 5593 5589 5593 5595 5595 5594 5597 5600 5601 5600 5600 5599 5596 5597 5599 5599 5598 5598 5598 5597 5596
5580 5582 5583 5584 5584 5584 5584 5584 5584 5584 5585 5586 5586 5585 5585 5584 5584 5584 5584 5585 5587 5588 5586 5585 5586 5588 5589 5590 5587 5594 5596 5596 5595 5594 5594 5593 5593 5593 5593 5593 5593 5592 5592 5591
5574 5576 5577 5579 5578 5579 5579 5579 5579 5578 5579 5580 5579 5579 5578 5578 5579 5579 5579 5581 5580 5580 5579 5578 5581 5582 5583 5583 5582 5589 5591 5591 5590 5590 5589 5588 5588 5588 5588 5587 5587 5586 5586 5585
5568 5570 5572 5573 5573 5572 5573 5573 5573 5573 5573 5573 5573 5573 5573 5573 5574 5574 5574 5574 5574 5571 5574 5576 5577 5575 5576 5575 5581 5584 5586 5585 5585 5585 5584 5583 5582 5582 5582 5582 5581 5580 5580 5579
5563 5564 5566 5567 5567 5566 5566 5567 5567 5567 5566 5566 5566 5566 5567 5567 5568 5568 5568 5568 5569 5565 5568 5570 5567 5566 5566 5572 5577 5579 5579 5579 5579 5579 5579 5578 5578 5577 5577 5576 5575 5574 5573 5572
5556 5557 5558 5560 5560 5560 5559 5559 5559 5559 5559 5560 5560 5560 5561 5561 5562 5563 5563 5560 5559 5559 5563 5561 5559 5560 5560 5568 5571 5572 5573 5573 5574 5574 5574 5573 5573 5572 5571 5570 5569 5568 5566 5565
5550 5551 5552 5552 5552 5553 5553 5554 5554 5554 5555 5555 5555 5555 5556 5556 5556 5557 5557 5556 5554 5555 5558 5557 5555 5555 5559 5563 5565 5565 5566 5566 5567 5567 5567 5566 5566 5565 5564 5563 5562 5560 5559 5557
5543 5545 5545 5544 5546 5547 5549 5550 5550 5550 5550 5550 5550 5550 5551 5551 5551 5551 5551 5551 5551 5549 5552 5554 5554 5553 5556 5557 5558 5558 5558 5558 5559 5559 5559 5558 5558 5557 5556 5554 5553 5552 5550 5548
5538 5539 5539 5541 5541 5542 5543 5543 5543 5543 5543 5542 5542 5542 5543 5544 5544 5545 5545 5546 5546 5546 5547 5548 5548 5549 5549 5549 5549 5549 5550 5550 5551 5550 5549 5549 5548 5547 5546 5544 5544 5543 5541 5540